Date,TemperatureHighF,TemperatureAvgF,TemperatureLowF,DewpointHighF,DewpointAvgF,DewpointLowF,HumidityHigh,HumidityAvg,HumidityLow,PressureMaxIn,PressureMinIn,WindSpeedMaxMPH,WindSpeedAvgMPH,GustSpeedMaxMPH,PrecipitationSumIn
2013-3-1,27.2,24.7,23.2,24.0,21.5,20.0,91,87,79,30.29,30.15,8,2,0,0.00
2013-3-2,30.1,22.6,12.7,23.0,17.2,9.0,89,80,70,30.31,30.26,6,1,0,0.06
2013-3-3,35.2,20.5,5.6,23.0,12.2,3.0,90,72,47,30.27,30.19,0,0,0,0.05
2013-3-4,32.6,26.8,14.6,26.0,19.7,11.0,89,75,61,30.23,30.08,7,1,0,0.00
2013-3-5,32.4,30.3,26.6,31.0,28.2,25.0,95,92,78,30.08,29.88,5,1,0,0.03
2013-3-6,32.1,28.5,25.6,29.0,26.2,24.0,95,91,88,30.41,30.08,7,1,0,0.15
2013-3-7,41.1,30.4,20.8,35.0,25.1,18.0,91,81,66,30.51,30.40,1,0,0,0.63
2013-3-8,37.7,28.9,15.2,28.0,23.1,13.0,94,80,67,30.58,30.40,6,1,0,0.32
2013-3-9,41.0,36.4,29.4,35.0,30.7,24.0,92,80,71,30.39,29.91,6,1,0,0.27
2013-3-10,41.8,15.6,40.2,41.0,-48.3,-99.9,97,35,78,29.95,29.66,5,1,0,0.23
2013-3-11,-200.0,0.0,200.0,-99.9,-99.9,-99.9,0,0,100,29.85,29.61,3,0,0,0.03
2013-3-12,36.9,23.4,25.6,30.0,-10.0,-99.9,90,56,72,30.12,29.85,13,1,0,0.80
2013-3-13,34.0,27.0,21.1,20.0,17.1,14.0,83,68,48,30.43,30.13,5,1,0,0.01
2013-3-14,32.3,27.3,18.2,30.0,23.8,15.0,94,87,62,30.43,30.18,5,0,0,0.01
2013-3-15,40.0,34.5,28.0,38.0,32.9,27.0,95,93,85,30.18,29.81,5,0,0,0.09
2013-3-16,34.9,32.2,29.5,33.0,29.4,24.0,96,89,76,30.20,29.80,6,1,0,0.00
2013-3-17,37.3,30.8,24.0,25.0,22.1,17.0,79,70,59,30.29,30.06,8,1,0,0.00
2013-3-18,33.8,29.4,20.5,33.0,25.8,13.0,95,87,74,30.07,29.71,14,1,0,0.08
2013-3-19,33.6,23.6,15.2,20.0,14.5,9.0,79,69,54,30.21,29.91,10,1,0,0.00
2013-3-20,24.2,19.0,11.3,16.0,8.7,4.0,79,65,53,30.22,30.14,4,0,0,0.00
2013-3-21,35.2,22.7,10.6,18.0,12.6,5.0,81,67,49,30.18,30.11,1,0,0,0.00
2013-3-22,41.5,27.1,12.3,23.0,16.3,9.0,90,67,40,30.17,30.11,1,0,0,0.00
2013-3-23,46.6,34.0,21.3,28.0,22.0,18.0,88,64,38,30.22,30.10,7,0,0,0.00
2013-3-24,36.4,32.4,30.5,29.0,25.9,24.0,90,77,65,30.11,29.74,11,2,0,0.00
2013-3-25,38.5,31.9,28.4,30.0,26.0,24.0,85,79,65,30.17,29.80,12,2,0,0.00
2013-3-26,42.9,34.6,26.8,28.0,26.2,23.0,88,72,49,30.35,30.18,5,0,0,0.00
2013-3-27,46.6,35.0,22.8,29.0,24.4,18.0,90,68,42,30.41,30.35,6,0,0,0.00
2013-3-28,51.6,35.3,19.4,36.0,24.3,17.0,100,68,38,30.45,30.37,1,0,0,0.00
2013-3-29,57.8,43.8,26.2,31.0,25.7,21.0,85,52,32,30.40,30.30,1,0,0,0.00
2013-3-30,57.8,44.2,27.4,42.0,33.1,22.0,86,67,47,30.32,29.93,8,1,0,0.00
2013-3-31,58.7,46.1,34.8,44.0,37.2,26.0,97,74,43,29.97,29.79,8,1,0,0.00